| time (UTC) | temp C | wind direction | speed KPH | gust KPH | rain 1hr cm | rain 24hr cm | rain mn cm | humidity % | barometer mb |
| 20260510174906 | 25 | 297 | 11.3 | 17.7 | 0.00 | 0.25 | 0.00 | 41 | 1004.3 |
| 20260510173905 | 25 | 310 | 8.0 | 17.7 | 0.00 | 0.25 | 0.00 | 44 | 1004.3 |
| 20260510172905 | 25 | 291 | 1.6 | 14.5 | 0.00 | 0.25 | 0.00 | 45 | 1004.2 |
| 20260510171905 | 23 | 270 | 1.6 | 20.9 | 0.00 | 0.25 | 0.00 | 46 | 1004.2 |
| 20260510170905 | 23 | 303 | 3.2 | 12.9 | 0.00 | 0.25 | 0.00 | 46 | 1004.3 |
| 20260510165905 | 23 | 277 | 3.2 | 8.0 | 0.00 | 0.25 | 0.00 | 47 | 1004.2 |
| 20260510164904 | 23 | 323 | 8.0 | 14.5 | 0.00 | 0.25 | 0.00 | 48 | 1004.3 |
| 20260510163904 | 22 | 295 | 6.4 | 12.9 | 0.00 | 0.25 | 0.00 | 50 | 1004.4 |
| 20260510162904 | 22 | 299 | 6.4 | 14.5 | 0.00 | 0.25 | 0.00 | 50 | 1004.4 |
| 20260510161909 | 22 | 292 | 8.0 | 16.1 | 0.00 | 0.25 | 0.00 | 51 | 1004.3 |
| 20260510160904 | 22 | 317 | 3.2 | 8.0 | 0.00 | 0.25 | 0.00 | 55 | 1004.4 |
| 20260510155904 | 22 | 304 | 4.8 | 8.0 | 0.00 | 0.25 | 0.00 | 56 | 1004.5 |
| 20260510154904 | 21 | 301 | 1.6 | 6.4 | 0.00 | 0.25 | 0.00 | 59 | 1004.5 |
| 20260510153904 | 21 | 334 | 1.6 | 6.4 | 0.00 | 0.25 | 0.00 | 61 | 1004.7 |
| 20260510152904 | 19 | 321 | 1.6 | 6.4 | 0.00 | 0.25 | 0.00 | 66 | 1004.7 |
| 20260510151917 | 20 | 283 | 1.6 | 8.0 | 0.00 | 0.25 | 0.00 | 66 | 1004.8 |
| 20260510150903 | 18 | 329 | 1.6 | 6.4 | 0.00 | 0.25 | 0.00 | 69 | 1004.9 |
| 20260510145904 | 18 | 325 | 0.0 | 3.2 | 0.00 | 0.25 | 0.00 | 72 | 1004.9 |
| 20260510144906 | 17 | 0 | 1.6 | 6.4 | 0.00 | 0.25 | 0.00 | 74 | 1004.9 |
| 20260510144444 | 16 | 79 | 1.6 | 3.2 | 0.00 | 0.25 | 0.00 | 84 | 1004.9 |
| 20260510143905 | 16 | 30 | 0.0 | 3.2 | 0.00 | 0.25 | 0.00 | 81 | 1004.9 |
| 20260510142905 | 16 | 79 | 1.6 | 3.2 | 0.00 | 0.25 | 0.00 | 84 | 1004.9 |
| 20260510140910 | 15 | 126 | 1.6 | 3.2 | 0.00 | 0.25 | 0.00 | 92 | 1004.8 |
| 20260510135904 | 14 | 128 | 0.0 | 3.2 | 0.00 | 0.25 | 0.00 | 96 | 1004.9 |
| 20260510134906 | 12 | 54 | 0.0 | 1.6 | 0.00 | 0.25 | 0.00 | 96 | 1004.8 |
| 20260510133904 | 12 | 91 | 0.0 | 1.6 | 0.00 | 0.25 | 0.00 | 96 | 1004.8 |
| 20260510132905 | 12 | 116 | 0.0 | 3.2 | 0.00 | 0.25 | 0.00 | 97 | 1004.7 |
| 20260510131910 | 12 | 336 | 0.0 | 3.2 | 0.00 | 0.25 | 0.00 | 96 | 1004.9 |
| 20260510130905 | 11 | 326 | 0.0 | 4.8 | 0.00 | 0.25 | 0.00 | 96 | 1004.9 |
| 20260510125906 | 11 | 0 | 0.0 | 0.0 | 0.00 | 0.25 | 0.00 | 97 | 1004.9 |
| 20260510124939 | 11 | 151 | 0.0 | 1.6 | 0.00 | 0.25 | 0.00 | 97 | 1004.7 |
| 20260510124904 | 11 | 151 | 0.0 | 1.6 | 0.00 | 0.25 | 0.00 | 97 | 1004.7 |
| 20260510123903 | 11 | 119 | 0.0 | 1.6 | 0.00 | 0.25 | 0.00 | 97 | 1004.5 |
| 20260510122908 | 11 | 86 | 0.0 | 3.2 | 0.00 | 0.25 | 0.00 | 97 | 1004.3 |
| 20260510121907 | 11 | 97 | 0.0 | 1.6 | 0.00 | 0.25 | 0.00 | 96 | 1004.2 |
| 20260510120904 | 11 | 116 | 0.0 | 3.2 | 0.00 | 0.25 | 0.00 | 96 | 1004.3 |
| 20260510115906 | 10 | 5 | 0.0 | 3.2 | 0.00 | 0.25 | 0.00 | 97 | 1004.5 |
| 20260510114905 | 10 | 73 | 0.0 | 4.8 | 0.00 | 0.25 | 0.00 | 97 | 1003.9 |
| 20260510113904 | 10 | 14 | 0.0 | 4.8 | 0.00 | 0.25 | 0.00 | 97 | 1004.0 |
| 20260510112904 | 10 | 51 | 0.0 | 3.2 | 0.00 | 0.25 | 0.00 | 97 | 1004.0 |
| 20260510111910 | 10 | 20 | 1.6 | 4.8 | 0.00 | 0.25 | 0.00 | 97 | 1004.1 |
| 20260510110904 | 10 | 30 | 1.6 | 6.4 | 0.00 | 0.25 | 0.00 | 96 | 1003.8 |
| 20260510105905 | 10 | 60 | 1.6 | 3.2 | 0.00 | 0.25 | 0.00 | 96 | 1003.5 |
| 20260510104904 | 10 | 57 | 1.6 | 4.8 | 0.00 | 0.25 | 0.00 | 96 | 1003.4 |
| 20260510103905 | 10 | 38 | 1.6 | 4.8 | 0.00 | 0.25 | 0.00 | 96 | 1003.3 |
| 20260510102905 | 10 | 28 | 0.0 | 3.2 | 0.00 | 0.25 | 0.00 | 96 | 1003.5 |
| 20260510101904 | 10 | 36 | 0.0 | 1.6 | 0.00 | 0.25 | 0.00 | 96 | 1003.2 |
| 20260510100909 | 10 | 83 | 1.6 | 4.8 | 0.00 | 0.25 | 0.00 | 96 | 1003.2 |
| 20260510095905 | 10 | 45 | 0.0 | 3.2 | 0.00 | 0.25 | 0.00 | 96 | 1003.2 |
| 20260510094903 | 10 | 31 | 0.0 | 3.2 | 0.00 | 0.25 | 0.00 | 96 | 1003.2 |
| 20260510093905 | 10 | 43 | 0.0 | 3.2 | 0.00 | 0.25 | 0.00 | 96 | 1003.0 |
| 20260510092905 | 9 | 31 | 0.0 | 4.8 | 0.00 | 0.25 | 0.00 | 96 | 1003.2 |
| 20260510091923 | 9 | 350 | 1.6 | 6.4 | 0.00 | 0.25 | 0.00 | 96 | 1003.3 |
| 20260510090905 | 9 | 346 | 1.6 | 8.0 | 0.00 | 0.25 | 0.00 | 96 | 1003.2 |
| 20260510085908 | 8 | 353 | 1.6 | 6.4 | 0.00 | 0.25 | 0.00 | 96 | 1003.2 |
| 20260510084905 | 8 | 6 | 1.6 | 9.7 | 0.00 | 0.25 | 0.00 | 96 | 1002.8 |
| 20260510083904 | 8 | 22 | 0.0 | 1.6 | 0.00 | 0.25 | 0.00 | 96 | 1002.5 |
| 20260510082905 | 8 | 0 | 0.0 | 1.6 | 0.00 | 0.25 | 0.00 | 96 | 1002.6 |
| 20260510081905 | 8 | 36 | 0.0 | 1.6 | 0.00 | 0.25 | 0.00 | 96 | 1002.5 |
| 20260510080904 | 8 | 0 | 0.0 | 0.0 | 0.00 | 0.25 | 0.00 | 96 | 1002.5 |
| 20260510075904 | 8 | 38 | 0.0 | 1.6 | 0.00 | 0.25 | 0.00 | 96 | 1002.4 |
| 20260510074904 | 8 | 12 | 0.0 | 4.8 | 0.00 | 0.25 | 0.00 | 96 | 1002.4 |
| 20260510073907 | 8 | 31 | 0.0 | 3.2 | 0.00 | 0.25 | 0.00 | 96 | 1002.5 |
| 20260510072904 | 8 | 42 | 0.0 | 3.2 | 0.00 | 0.25 | 0.00 | 96 | 1002.4 |
| 20260510071926 | 8 | 9 | 0.0 | 4.8 | 0.00 | 0.25 | 0.00 | 96 | 1002.3 |
| 20260510071632 | 8 | 3 | 1.6 | 6.4 | 0.00 | 0.25 | 0.00 | 96 | 1002.0 |
| 20260510070903 | 8 | 3 | 1.6 | 6.4 | 0.00 | 0.25 | 0.00 | 96 | 1002.0 |
| 20260510065904 | 8 | 6 | 0.0 | 3.2 | 0.00 | 0.25 | 0.00 | 96 | 1002.0 |
| 20260510064903 | 8 | 0 | 0.0 | 0.0 | 0.00 | 0.25 | 0.00 | 96 | 1001.9 |
| 20260510064427 | 8 | 22 | 0.0 | 1.6 | 0.00 | 0.25 | 0.00 | 95 | 1001.9 |
| 20260510063903 | 8 | 0 | 0.0 | 0.0 | 0.00 | 0.25 | 0.00 | 95 | 1001.8 |
| 20260510062903 | 8 | 22 | 0.0 | 1.6 | 0.00 | 0.25 | 0.00 | 95 | 1001.9 |
| 20260510061912 | 8 | 23 | 0.0 | 1.6 | 0.00 | 0.25 | 0.00 | 95 | 1001.9 |
| 20260510060905 | 8 | 0 | 0.0 | 1.6 | 0.00 | 0.25 | 0.00 | 95 | 1002.0 |
| 20260510055905 | 8 | 23 | 0.0 | 1.6 | 0.00 | 0.25 | 0.00 | 95 | 1002.2 |
| 20260510054904 | 8 | 70 | 0.0 | 1.6 | 0.00 | 0.25 | 0.00 | 95 | 1002.3 |
| 20260510054547 | 8 | 104 | 0.0 | 1.6 | 0.00 | 0.25 | 0.00 | 95 | 1002.3 |
| 20260510054017 | 9 | 0 | 0.0 | 0.0 | 0.00 | 0.25 | 0.00 | 95 | 1002.5 |
| 20260510053904 | 8 | 104 | 0.0 | 1.6 | 0.00 | 0.25 | 0.00 | 95 | 1002.3 |
| 20260510052903 | 9 | 104 | 0.0 | 1.6 | 0.00 | 0.25 | 0.00 | 95 | 1002.4 |
| 20260510051923 | 9 | 104 | 0.0 | 1.6 | 0.00 | 0.25 | 0.00 | 95 | 1002.4 |
| 20260510050904 | 9 | 0 | 0.0 | 0.0 | 0.00 | 0.25 | 0.00 | 95 | 1002.5 |
| 20260510045907 | 9 | 0 | 0.0 | 1.6 | 0.00 | 0.25 | 0.00 | 95 | 1002.4 |
| 20260510044903 | 9 | 0 | 0.0 | 1.6 | 0.00 | 0.25 | 0.00 | 95 | 1002.6 |
| 20260510043904 | 9 | 0 | 0.0 | 0.0 | 0.00 | 0.25 | 0.00 | 95 | 1002.7 |
| 20260510042904 | 9 | 0 | 0.0 | 0.0 | 0.00 | 0.25 | 0.00 | 95 | 1002.7 |
| 20260510041904 | 10 | 104 | 0.0 | 1.6 | 0.00 | 0.25 | 0.00 | 95 | 1002.8 |
| 20260510040904 | 10 | 104 | 0.0 | 1.6 | 0.00 | 0.25 | 0.00 | 95 | 1002.7 |
| 20260510035907 | 10 | 104 | 0.0 | 1.6 | 0.00 | 0.25 | 0.25 | 94 | 1002.7 |
| 20260510034903 | 10 | 104 | 0.0 | 1.6 | 0.00 | 0.25 | 0.25 | 94 | 1002.6 |
| 20260510033905 | 10 | 104 | 0.0 | 1.6 | 0.00 | 0.25 | 0.25 | 94 | 1002.4 |
| 20260510032904 | 11 | 0 | 0.0 | 0.0 | 0.00 | 0.25 | 0.25 | 94 | 1002.3 |
| 20260510031915 | 11 | 0 | 0.0 | 0.0 | 0.00 | 0.25 | 0.25 | 94 | 1002.3 |
| 20260510030906 | 11 | 0 | 0.0 | 1.6 | 0.00 | 0.25 | 0.25 | 94 | 1002.2 |
| 20260510025906 | 11 | 0 | 0.0 | 1.6 | 0.00 | 0.25 | 0.25 | 94 | 1002.3 |
| 20260510024905 | 10 | 0 | 0.0 | 0.0 | 0.00 | 0.25 | 0.25 | 94 | 1002.2 |
| 20260510023905 | 10 | 0 | 0.0 | 0.0 | 0.00 | 0.25 | 0.25 | 94 | 1002.2 |
| 20260510022906 | 11 | 0 | 0.0 | 1.6 | 0.00 | 0.25 | 0.25 | 94 | 1002.2 |
| 20260510022829 | 11 | 0 | 0.0 | 0.0 | 0.00 | 0.25 | 0.25 | 93 | 1002.1 |
| 20260510020904 | 11 | 0 | 0.0 | 0.0 | 0.00 | 0.25 | 0.25 | 93 | 1002.1 |
| 20260510015904 | 11 | 0 | 0.0 | 1.6 | 0.00 | 0.25 | 0.25 | 93 | 1002.0 |
| 20260510014904 | 11 | 0 | 0.0 | 1.6 | 0.00 | 0.25 | 0.25 | 93 | 1001.9 |
| 20260510013905 | 11 | 0 | 0.0 | 0.0 | 0.00 | 0.25 | 0.25 | 93 | 1002.0 |
| 20260510012904 | 11 | 0 | 0.0 | 1.6 | 0.00 | 0.25 | 0.25 | 93 | 1002.1 |
| 20260510011905 | 11 | 0 | 0.0 | 0.0 | 0.00 | 0.25 | 0.25 | 92 | 1002.0 |
| 20260510010906 | 12 | 0 | 0.0 | 0.0 | 0.00 | 0.25 | 0.25 | 92 | 1001.8 |
| 20260510005909 | 12 | 103 | 0.0 | 1.6 | 0.00 | 0.25 | 0.25 | 92 | 1001.7 |
| 20260510004903 | 12 | 100 | 0.0 | 1.6 | 0.00 | 0.25 | 0.25 | 92 | 1001.8 |
| 20260510003905 | 12 | 0 | 0.0 | 1.6 | 0.00 | 0.25 | 0.25 | 91 | 1001.8 |
| 20260510002905 | 12 | 82 | 0.0 | 1.6 | 0.00 | 0.25 | 0.25 | 91 | 1001.5 |
| 20260510001905 | 12 | 0 | 0.0 | 0.0 | 0.00 | 0.25 | 0.25 | 90 | 1001.7 |
| 20260510000905 | 12 | 0 | 0.0 | 1.6 | 0.00 | 0.25 | 0.25 | 89 | 1001.6 |
| 20260509235905 | 13 | 0 | 0.0 | 0.0 | 0.00 | 0.25 | 0.25 | 88 | 1001.6 |
| 20260509234905 | 13 | 55 | 0.0 | 1.6 | 0.00 | 0.25 | 0.25 | 87 | 1001.7 |
| 20260509233906 | 13 | 55 | 0.0 | 1.6 | 0.00 | 0.25 | 0.25 | 85 | 1001.6 |
| 20260509232905 | 13 | 54 | 0.0 | 1.6 | 0.00 | 0.25 | 0.25 | 85 | 1001.5 |
| 20260509231916 | 13 | 53 | 0.0 | 3.2 | 0.00 | 0.25 | 0.25 | 85 | 1001.5 |
| 20260509225905 | 13 | 134 | 1.6 | 4.8 | 0.00 | 0.25 | 0.25 | 86 | 1001.4 |
| 20260509224906 | 13 | 145 | 1.6 | 8.0 | 0.00 | 0.25 | 0.25 | 87 | 1001.3 |
| 20260509223905 | 13 | 136 | 1.6 | 4.8 | 0.00 | 0.25 | 0.25 | 87 | 1001.5 |
| 20260509222904 | 13 | 136 | 3.2 | 4.8 | 0.00 | 0.25 | 0.25 | 87 | 1001.3 |
| 20260509221905 | 13 | 120 | 1.6 | 4.8 | 0.08 | 0.25 | 0.25 | 87 | 1001.5 |
| 20260509220905 | 13 | 113 | 1.6 | 3.2 | 0.25 | 0.25 | 0.25 | 87 | 1001.6 |
| 20260509215905 | 13 | 141 | 1.6 | 4.8 | 0.25 | 0.25 | 0.25 | 86 | 1001.7 |
| 20260509214907 | 13 | 102 | 1.6 | 4.8 | 0.25 | 0.25 | 0.25 | 85 | 1001.9 |
| 20260509213904 | 13 | 59 | 0.0 | 3.2 | 0.25 | 0.25 | 0.25 | 85 | 1002.2 |
| 20260509212904 | 13 | 62 | 0.0 | 4.8 | 0.23 | 0.23 | 0.23 | 84 | 1002.2 |
| 20260509211905 | 13 | 99 | 1.6 | 4.8 | 0.05 | 0.05 | 0.05 | 80 | 1001.9 |
| 20260509210905 | 14 | 11 | 1.6 | 4.8 | 0.00 | 0.00 | 0.00 | 75 | 1002.2 |
| 20260509205904 | 15 | 24 | 1.6 | 3.2 | 0.00 | 0.00 | 0.00 | 73 | 1001.7 |
| 20260509204905 | 15 | 3 | 3.2 | 6.4 | 0.00 | 0.00 | 0.00 | 73 | 1001.8 |
| 20260509203905 | 15 | 42 | 1.6 | 8.0 | 0.00 | 0.00 | 0.00 | 72 | 1001.7 |
| 20260509202954 | 15 | 36 | 3.2 | 14.5 | 0.00 | 0.00 | 0.00 | 74 | 1001.4 |
| 20260509202906 | 15 | 36 | 3.2 | 14.5 | 0.00 | 0.00 | 0.00 | 74 | 1001.4 |
| 20260509201905 | 15 | 347 | 3.2 | 9.7 | 0.00 | 0.00 | 0.00 | 76 | 1001.5 |
| 20260509200905 | 15 | 5 | 3.2 | 12.9 | 0.00 | 0.00 | 0.00 | 75 | 1001.6 |
| 20260509195905 | 15 | 339 | 3.2 | 14.5 | 0.00 | 0.00 | 0.00 | 74 | 1001.4 |
| 20260509194945 | 14 | 3 | 3.2 | 14.5 | 0.00 | 0.00 | 0.00 | 77 | 1001.6 |
| 20260509194904 | 14 | 3 | 3.2 | 14.5 | 0.00 | 0.00 | 0.00 | 77 | 1001.6 |
| 20260509193907 | 14 | 338 | 4.8 | 12.9 | 0.00 | 0.00 | 0.00 | 75 | 1001.8 |
| 20260509192904 | 15 | 291 | 4.8 | 12.9 | 0.00 | 0.00 | 0.00 | 73 | 1002.2 |
| 20260509191904 | 15 | 353 | 1.6 | 8.0 | 0.00 | 0.00 | 0.00 | 70 | 1002.1 |
| 20260509190904 | 15 | 335 | 3.2 | 8.0 | 0.00 | 0.00 | 0.00 | 71 | 1002.3 |
| 20260509185904 | 15 | 325 | 8.0 | 14.5 | 0.00 | 0.00 | 0.00 | 71 | 1002.4 |
| 20260509184904 | 15 | 303 | 9.7 | 20.9 | 0.00 | 0.00 | 0.00 | 70 | 1002.3 |
| 20260509183904 | 15 | 297 | 6.4 | 12.9 | 0.00 | 0.00 | 0.00 | 67 | 1002.5 |
| 20260509182904 | 16 | 309 | 8.0 | 16.1 | 0.00 | 0.00 | 0.00 | 66 | 1002.5 |
| 20260509181905 | 16 | 312 | 4.8 | 12.9 | 0.00 | 0.00 | 0.00 | 64 | 1002.3 |
| 20260509180906 | 16 | 285 | 6.4 | 9.7 | 0.00 | 0.00 | 0.00 | 65 | 1002.4 |
| 20260509175904 | 16 | 309 | 3.2 | 9.7 | 0.00 | 0.00 | 0.00 | 63 | 1002.1 |